Terminal Aerodrome Forecast
Issued by NWS

Home | Current Version | Previous Version | Text Only | Print | Product List | Glossary On
Versions: 1 2 3 4 5 6 7 8 9 10 11 12 13
000
FTUS44 KCRP 302300
TAFLRD
TAF
KLRD 302321Z 3100/3124 15015G20KT P6SM SCT150
     FM310400 16010KT P6SM BKN150
      TEMPO 3110/3112 BKN015 OVC150
     FM311500 17008KT P6SM BKN150=

USA.gov is the U.S. government's official web portal to all federal, state and local government web resources and services.